Miscellaneous Local Product
Issued by NWS Hastings, NE

Home | Current Version | Previous Version | Text Only | Print | Product List | Glossary Off
Versions: 1 2 3 4 5 6 7 8 9 10 11 12 13 14 15 16 17 18 19 20 21 22 23 24 25 26 27 28 29 30 31 32 33 34 35 36 37 38 39 40 41 42 43 44 45 46 47 48 49 50

764
AXUS43 KGID 050102
MISGRI

GID CWA HOURLY WEATHER ROUNDUP
NATIONAL WEATHER SERVICE HASTINGS NE
700 PM CST THU FEB 04 2016

NOTE: "FAIR" INDICATES FEW OR NO CLOUDS BELOW 12,000 FEET WITH NO
SIGNIFICANT WEATHER AND/OR OBSTRUCTIONS TO VISIBILITY.

...SOUTH CENTRAL NEBRASKA...

CITY           SKY/WX    TMP DP  RH WIND       PRES   REMARKS
GRAND ISLAND   CLEAR     21  14  74 SW3       30.28R
HASTINGS       CLEAR     17  13  84 SW3       30.27S
ORD            CLOUDY    21  15  78 SW5       30.24R WCI  15
YORK           PTCLDY    23  19  86 CALM      30.29R
AURORA         CLEAR     20  16  83 SW3       30.28R
LEXINGTON      CLOUDY    23  16  75 SE3       30.23F
HOLDREGE       CLOUDY    21  16  81 SW3       30.25S
HEBRON         CLEAR     20  15  82 CALM      30.32R

...NEBRASKA PANHANDLE...

CITY           SKY/WX    TMP DP  RH WIND       PRES   REMARKS
CHADRON        CLOUDY    30  21  69 W6        30.13R WCI  24
ALLIANCE       CLOUDY    25  18  74 SW7       30.13R WCI  17
SCOTTSBLUFF    CLOUDY    31  21  66 W16       30.16R WCI  20
SIDNEY         CLOUDY    24  13  62 W9        30.17R WCI  14

...WESTERN AND NORTH CENTRAL NEBRASKA...

CITY           SKY/WX    TMP DP  RH WIND       PRES   REMARKS
VALENTINE      CLEAR     25  16  68 S8        30.15S WCI  16
AINSWORTH      CLEAR     25  18  74 SE7       30.17S WCI  17
ONEILL         CLEAR     24  15  67 S3        30.23R
BROKEN BOW     CLOUDY    17  12  80 S3        30.20F
IMPERIAL       CLOUDY    22  14  71 SW5       30.21S WCI  16
NORTH PLATTE   CLOUDY    23  15  71 SW8       30.21R WCI  14
MCCOOK         CLOUDY    21  14  74 W7        30.24R WCI  12

...EASTERN NEBRASKA...

CITY           SKY/WX    TMP DP  RH WIND       PRES   REMARKS
NORFOLK        CLOUDY    20  13  74 SW5       30.26R WCI  13
SO SIOUX CITY  CLEAR     22  14  71 CALM      30.28R
TEKAMAH        CLEAR     18  14  84 NW5       30.30R WCI  11
COLUMBUS       CLEAR     16   5  62 CALM      30.29R
ALBION         PTCLDY    18  13  79 CALM      30.26S
OMAHA EPPLEY   PTCLDY    27  20  75 W8        30.30R WCI  19
OFFUTT AFB     CLEAR     25  20  80 W5        30.30R WCI  19
MILLARD        CLEAR     29  21  73 CALM      30.30R
LINCOLN        CLEAR     24  18  77 W3        30.33R
NEBRASKA CITY  CLEAR     23  17  79 W6        30.30R WCI  15
BEATRICE       CLEAR     23  18  81 CALM      30.31R
FALLS CITY     CLEAR     26  19  74 W5        30.31R WCI  20

...NORTHERN KANSAS...

CITY           SKY/WX    TMP DP  RH WIND       PRES   REMARKS
GOODLAND       CLOUDY    20  12  71 SW3       30.21S
HILL CITY      CLOUDY    23  16  74 W5        30.27F WCI  17
NORTON         CLEAR     19  12  73 W5        30.24  WCI  13
PHILLIPSBURG   CLOUDY    21  14  73 CALM      30.29
SMITH CENTER   CLEAR     21  16  79 CALM      30.30S
BELOIT         CLEAR     23  18  80 NW3       30.31R
HAYS           CLOUDY    23   9  54 NW7       30.29S WCI  15
RUSSELL        CLEAR     23  19  85 SW6       30.29R WCI  16
CONCORDIA      CLEAR     23  16  74 W5        30.31R WCI  17
SALINA         CLEAR     32  20  61 NW7       30.32R WCI  26
TOPEKA         CLEAR     35  18  49 W3        30.30R



USA.gov is the U.S. government's official web portal to all federal, state and local government web resources and services.